AIB885 YSWS-YSSY

Flight info

Callsign AIB885
Flight time 0h 12m
Altitude 13000
Route RIC DCT RUNNA DCT BOREE
Aircraft A333/H-SDE3GHIJ2J3J5M1RVWXY/LB2D1

Departure

Time 2026-04-21 06:45
Airport (Duplicate)Western Sydney International Airport (YSWS)

Arrival

Time 2026-04-21 06:57
Airport Sydney Kingsford Smith International Airport (YSSY)
Time Latitude Longitude Altitude Speed Heading
2026-04-21 06:33 -33.88632 150.71741 275 ft 0 kts 149°
2026-04-21 06:38 -33.88624 150.71736 276 ft 2 kts 149°
2026-04-21 06:38 -33.88608 150.71724 276 ft 3 kts 149°
2026-04-21 06:39 -33.88583 150.71706 277 ft 5 kts 149°
2026-04-21 06:39 -33.88559 150.71687 278 ft 1 kts 163°
2026-04-21 06:39 -33.88551 150.71683 277 ft 1 kts 183°
2026-04-21 06:39 -33.88545 150.71684 277 ft 1 kts 194°
2026-04-21 06:40 -33.88543 150.71683 276 ft 0 kts 205°
2026-04-21 06:40 -33.88542 150.71683 279 ft 1 kts 207°
2026-04-21 06:40 -33.88536 150.71687 279 ft 1 kts 210°
2026-04-21 06:40 -33.88595 150.71594 275 ft 16 kts 242°
2026-04-21 06:41 -33.88647 150.71478 275 ft 18 kts 240°
2026-04-21 06:41 -33.88720 150.71323 275 ft 22 kts 240°
2026-04-21 06:41 -33.88798 150.71157 275 ft 23 kts 243°
2026-04-21 06:41 -33.88799 150.71116 275 ft 3 kts 286°
2026-04-21 06:42 -33.88785 150.71093 275 ft 3 kts 316°
2026-04-21 06:42 -33.88760 150.71070 275 ft 6 kts 326°
2026-04-21 06:42 -33.88715 150.71029 274 ft 9 kts 313°
2026-04-21 06:42 -33.88706 150.70969 273 ft 7 kts 259°
2026-04-21 06:43 -33.88788 150.70788 274 ft 65 kts 239°
2026-04-21 06:43 -33.89028 150.70305 274 ft 54 kts 239°
2026-04-21 06:43 -33.89201 150.69954 274 ft 43 kts 239°
2026-04-21 06:43 -33.89267 150.69802 274 ft 5 kts 266°
2026-04-21 06:44 -33.89207 150.69714 271 ft 25 kts 325°
2026-04-21 06:44 -33.89121 150.69686 270 ft 4 kts 38°
2026-04-21 06:44 -33.88994 150.69927 268 ft 85 kts 59°
2026-04-21 06:44 -33.88501 150.70944 269 ft 197 kts 58°
2026-04-21 06:45 -33.87727 150.72663 770 ft 261 kts 62°
2026-04-21 06:45 -33.86530 150.74260 1924 ft 257 kts 21°
2026-04-21 06:45 -33.84764 150.74318 3133 ft 261 kts 348°
2026-04-21 06:45 -33.82932 150.73892 3974 ft 272 kts 347°
2026-04-21 06:46 -33.81196 150.73039 4459 ft 268 kts 329°
2026-04-21 06:46 -33.79643 150.71824 4566 ft 265 kts 325°
2026-04-21 06:46 -33.78131 150.70558 4351 ft 265 kts 324°
2026-04-21 06:46 -33.76623 150.69288 4114 ft 265 kts 324°
2026-04-21 06:47 -33.75121 150.68017 3868 ft 264 kts 323°
2026-04-21 06:47 -33.73912 150.66408 3611 ft 262 kts 297°
2026-04-21 06:47 -33.73469 150.64304 3363 ft 260 kts 269°
2026-04-21 06:47 -33.73907 150.62221 3115 ft 260 kts 241°
2026-04-21 06:48 -33.75116 150.60635 2855 ft 260 kts 213°
2026-04-21 06:48 -33.76807 150.59938 2674 ft 259 kts 184°
2026-04-21 06:48 -33.78548 150.60306 2640 ft 260 kts 156°
2026-04-21 06:48 -33.80003 150.61627 2643 ft 261 kts 133°
2026-04-21 06:49 -33.81113 150.63307 2652 ft 261 kts 119°
2026-04-21 06:49 -33.81818 150.65355 2645 ft 261 kts 114°
2026-04-21 06:49 -33.82735 150.67200 2648 ft 261 kts 126°
2026-04-21 06:49 -33.83842 150.68937 2649 ft 261 kts 128°
2026-04-21 06:50 -33.84967 150.70655 2646 ft 261 kts 128°
2026-04-21 06:50 -33.86091 150.72367 2646 ft 261 kts 128°
2026-04-21 06:50 -33.87223 150.74087 2647 ft 261 kts 128°
2026-04-21 06:50 -33.88348 150.75800 2647 ft 261 kts 128°
2026-04-21 06:51 -33.89476 150.77515 2646 ft 261 kts 128°
2026-04-21 06:51 -33.90607 150.79232 2647 ft 261 kts 128°
2026-04-21 06:51 -33.91734 150.80945 2646 ft 261 kts 128°
2026-04-21 06:51 -33.92889 150.82699 2661 ft 284 kts 128°
2026-04-21 06:52 -33.94221 150.84719 2643 ft 327 kts 128°
2026-04-21 06:52 -33.95666 150.86909 2641 ft 339 kts 129°
2026-04-21 06:52 -33.97137 150.89135 2645 ft 339 kts 129°
2026-04-21 06:52 -33.98597 150.91345 2661 ft 326 kts 129°
2026-04-21 06:53 -33.99918 150.93345 2663 ft 287 kts 129°
2026-04-21 06:53 -34.01214 150.95309 2629 ft 316 kts 129°
2026-04-21 06:53 -34.02612 150.97477 2646 ft 335 kts 124°
2026-04-21 06:53 -34.03544 151.00043 2643 ft 340 kts 103°
2026-04-21 06:54 -34.03530 151.02819 2462 ft 328 kts 74°
2026-04-21 06:54 -34.02484 151.05223 1773 ft 323 kts 53°
2026-04-21 06:54 -34.01136 151.07273 1471 ft 295 kts 51°
2026-04-21 06:54 -33.99921 151.09137 1447 ft 285 kts 52°
2026-04-21 06:55 -33.98862 151.11165 1460 ft 290 kts 71°
2026-04-21 06:55 -33.98887 151.13555 1571 ft 290 kts 107°
2026-04-21 06:55 -33.99786 151.15627 1684 ft 255 kts 125°
2026-04-21 06:55 -34.00686 151.17219 1584 ft 212 kts 111°
2026-04-21 06:56 -34.00622 151.18795 1477 ft 178 kts 57°
2026-04-21 06:56 -33.99657 151.19386 1464 ft 156 kts 347°
2026-04-21 06:56 -33.98684 151.18799 756 ft 165 kts 333°
2026-04-21 06:56 -33.97555 151.18339 179 ft 166 kts 348°
2026-04-21 06:57 -33.96486 151.18081 48 ft 149 kts 347°
2026-04-21 06:57 -33.95530 151.17830 35 ft 128 kts 347°
2026-04-21 06:57 -33.94752 151.17631 27 ft 97 kts 348°
2026-04-21 06:57 -33.94404 151.17439 29 ft 44 kts 319°
2026-04-21 06:58 -33.94340 151.17367 29 ft 0 kts 316°
2026-04-21 06:58 -33.94338 151.17365 29 ft 5 kts 316°
2026-04-21 06:58 -33.94195 151.17280 31 ft 38 kts 348°
2026-04-21 06:59 -33.93994 151.17213 26 ft 10 kts 317°
2026-04-21 06:59 -33.93985 151.17172 28 ft 6 kts 274°
2026-04-21 06:59 -33.93965 151.17121 27 ft 9 kts 316°
2026-04-21 06:59 -33.93894 151.17082 27 ft 15 kts 343°
2026-04-21 07:00 -33.93837 151.17050 27 ft 2 kts 289°
2026-04-21 07:00 -33.93848 151.17010 29 ft 10 kts 250°
2026-04-21 07:00 -33.93855 151.16986 29 ft 0 kts 252°